Regional Weather Roundup
Issued by NWS

Home | Current Version | Previous Version | Graphics & Text | Print | Product List | Glossary On
Versions: 1 2 3 4 5 6 7 8 9 10 11 12 13 14 15 16 17 18 19 20 21 22 23 24 25 26 27 28 29 30 31 32 33 34 35 36 37 38 39 40 41 42 43 44 45 46 47 48 49 50
000
ASUS43 KFSD 212202
RWRSD

WEATHER ROUNDUP FOR SOUTH DAKOTA
NATIONAL WEATHER SERVICE SIOUX FALLS SD
500 PM CDT MON AUG 21 2017

NOTE: "FAIR" INDICATES FEW OR NO CLOUDS BELOW 12,000 FEET WITH NO
SIGNIFICANT WEATHER AND/OR OBSTRUCTIONS TO VISIBILITY.


SDZ001>005-009-010-012>017-212300-
NORTHWEST AND NORTH CENTRAL SOUTH DAKOTA

CITY           SKY/WX    TMP DP  RH WIND       PRES   REMARKS
BUFFALO          N/A     79  37  22 N15G28    30.06S
FAITH            N/A     79  41  25 N20G29    30.07R
MOBRIDGE       SUNNY     80  55  42 N20G28    29.97R
$$

SDZ012>016-024>037-041>051-057-063-072>074-212300-
SOUTHWEST AND SOUTH CENTRAL SOUTH DAKOTA

CITY           SKY/WX    TMP DP  RH WIND       PRES   REMARKS
RAPID CTY ARPT SUNNY     79  40  24 N17G29    30.12S
PIERRE         SUNNY     81  58  45 N20       29.97S
CUSTER         SUNNY     72  36  26 NE8G20    30.22S
ELLSWORTH AFB  SUNNY     79  39  23 NW20      30.11S
PHILIP         SUNNY     85  44  23 N20       30.03R
PINE RIDGE     SUNNY     82  53  36 N13G21    30.10S
SPEARFISH      FAIR      77  36  22 N14G22    30.18S
WINNER         MOCLDY    76  67  73 N12       30.01R
$$

SDZ004>011-016>023-039-040-212300-
NORTHEAST SOUTH DAKOTA

CITY           SKY/WX    TMP DP  RH WIND       PRES   REMARKS
ABERDEEN       MOSUNNY   79  61  53 NW16G24   29.93S
WATERTOWN      CLOUDY    74  62  66 NW16      29.92R
BROOKINGS      CLOUDY    71  64  78 NW9       29.95R
SISSETON         N/A     75  63  66 NW16G26   29.87S
$$

SDZ017-020-022-023-036>040-048>070-212300-
SOUTHEAST SOUTH DAKOTA

CITY           SKY/WX    TMP DP  RH WIND       PRES   REMARKS
SIOUX FALLS    CLOUDY    70  67  90 W5        29.95R
HURON          SUNNY     77  65  66 NW10      29.94R
CHAMBERLAIN    SUNNY     79  66  65 NW13      29.98R
MITCHELL       SUNNY     77  66  68 N12       29.96R
YANKTON        TSTM      66  64  93 N8G20     29.96R
$$

ABBREVIATIONS USED IN REMARKS
   TC - TEMPERATURE IN CELSIUS
  WCI - WIND CHILL INDEX
   HX - HEAT INDEX
  VSB - VISIBILITY





USA.gov is the U.S. government's official web portal to all federal, state and local government web resources and services.